TimeEST,TemperatureF,Dew PointF,Humidity,Sea Level PressureIn,VisibilityMPH,Wind Direction,Wind SpeedMPH,Gust SpeedMPH,PrecipitationIn,Events,Conditions,WindDirDegrees,DateUTC
12:08 AM,55.4,53.6,94,30.20,1.8,Calm,Calm,-,N/A,,Clear,0,2013-11-17 05:08:00
12:16 AM,51.8,51.8,100,30.20,1.2,Calm,Calm,-,N/A,,Clear,0,2013-11-17 05:16:00
12:25 AM,51.8,51.8,100,30.20,0.8,Calm,Calm,-,N/A,,Clear,0,2013-11-17 05:25:00
12:40 AM,51.8,51.8,100,30.20,0.2,Calm,Calm,-,N/A,Fog,Fog,0,2013-11-17 05:40:00
12:54 AM,51.1,50.0,96,30.19,0.2,Calm,Calm,-,N/A,Fog,Fog,0,2013-11-17 05:54:00
1:28 AM,51.8,51.8,100,30.19,0.2,Calm,Calm,-,N/A,Fog,Fog,0,2013-11-17 06:28:00
1:47 AM,51.8,51.8,100,30.18,0.2,Calm,Calm,-,N/A,Fog,Fog,0,2013-11-17 06:47:00
1:54 AM,52.0,52.0,100,30.17,0.5,Calm,Calm,-,N/A,Fog,Fog,0,2013-11-17 06:54:00
2:01 AM,50.0,50.0,100,30.17,0.5,Calm,Calm,-,N/A,Fog,Fog,0,2013-11-17 07:01:00
2:54 AM,55.0,54.0,96,30.16,0.2,Calm,Calm,-,N/A,Fog,Fog,0,2013-11-17 07:54:00
3:54 AM,55.0,55.0,100,30.16,0.2,North,4.6,-,N/A,Fog,Fog,360,2013-11-17 08:54:00
4:54 AM,55.0,55.0,100,30.15,0.2,NNE,4.6,-,N/A,Fog,Fog,20,2013-11-17 09:54:00
5:54 AM,55.0,55.0,100,30.14,0.2,East,3.5,-,N/A,Fog,Fog,90,2013-11-17 10:54:00
6:54 AM,54.0,54.0,100,30.14,0.2,ESE,3.5,-,N/A,Fog,Fog,110,2013-11-17 11:54:00
7:54 AM,55.0,54.0,96,30.16,0.2,NNE,3.5,-,N/A,Fog,Fog,30,2013-11-17 12:54:00
8:54 AM,55.9,55.0,97,30.18,0.2,NE,4.6,-,N/A,Fog,Fog,40,2013-11-17 13:54:00
9:31 AM,57.2,55.4,94,30.18,1.2,Calm,Calm,-,N/A,,Overcast,0,2013-11-17 14:31:00
9:43 AM,57.2,57.2,100,30.18,2.0,ENE,3.5,-,N/A,,Overcast,70,2013-11-17 14:43:00
9:54 AM,57.9,57.0,97,30.18,3.0,Calm,Calm,-,N/A,,Overcast,0,2013-11-17 14:54:00
10:51 AM,60.8,57.2,88,30.16,5.0,Calm,Calm,-,N/A,,Mostly Cloudy,0,2013-11-17 15:51:00
10:54 AM,60.1,57.9,93,30.16,5.0,Calm,Calm,-,N/A,,Mostly Cloudy,0,2013-11-17 15:54:00
11:26 AM,60.8,59.0,94,30.15,8.0,Calm,Calm,-,N/A,,Overcast,0,2013-11-17 16:26:00
11:54 AM,62.1,59.0,90,30.13,10.0,Calm,Calm,-,N/A,,Mostly Cloudy,0,2013-11-17 16:54:00
12:54 PM,64.9,61.0,87,30.09,10.0,SE,3.5,-,N/A,,Overcast,140,2013-11-17 17:54:00
1:54 PM,73.0,62.1,68,30.04,10.0,SE,6.9,-,N/A,,Mostly Cloudy,130,2013-11-17 18:54:00
2:54 PM,68.0,62.1,81,30.03,10.0,Variable,3.5,-,N/A,,Overcast,0,2013-11-17 19:54:00
3:54 PM,68.0,62.1,81,30.02,10.0,South,3.5,-,N/A,,Mostly Cloudy,190,2013-11-17 20:54:00
4:41 PM,66.2,62.6,88,30.03,10.0,Calm,Calm,-,N/A,,Overcast,0,2013-11-17 21:41:00
4:54 PM,66.9,63.0,87,30.02,10.0,Calm,Calm,-,N/A,,Overcast,0,2013-11-17 21:54:00
5:54 PM,66.9,64.0,90,30.02,10.0,SE,5.8,-,N/A,,Overcast,140,2013-11-17 22:54:00
6:54 PM,68.0,66.0,93,30.00,10.0,SSE,5.8,-,0.00,Rain,Light Rain,150,2013-11-17 23:54:00
7:25 PM,66.2,66.2,100,30.00,10.0,SSE,5.8,-,N/A,,Overcast,150,2013-11-18 00:25:00
7:38 PM,66.2,66.2,100,29.99,10.0,SSE,5.8,-,N/A,,Overcast,150,2013-11-18 00:38:00
7:47 PM,68.0,66.2,94,29.99,10.0,SSE,5.8,-,N/A,,Overcast,150,2013-11-18 00:47:00
7:54 PM,68.0,66.9,96,29.99,10.0,SSE,4.6,-,N/A,,Overcast,150,2013-11-18 00:54:00
8:54 PM,68.0,66.9,96,29.98,10.0,SSE,4.6,-,N/A,,Overcast,160,2013-11-18 01:54:00
9:08 PM,68.0,66.2,94,29.98,10.0,South,3.5,-,N/A,,Overcast,170,2013-11-18 02:08:00
9:54 PM,68.0,66.9,96,29.97,10.0,South,8.1,-,N/A,,Overcast,190,2013-11-18 02:54:00
10:43 PM,68.0,66.2,94,29.98,9.0,SSW,8.1,-,0.00,,Overcast,200,2013-11-18 03:43:00
10:54 PM,68.0,66.9,96,29.97,8.0,South,8.1,-,0.00,Rain,Light Rain,190,2013-11-18 03:54:00
11:54 PM,68.0,66.9,96,29.95,7.0,SSW,8.1,-,0.01,Rain,Light Rain,210,2013-11-18 04:54:00